ATLAS 5 CENTAUR DEB, 44981

Orbit data source: Space-Track

ATLAS 5 CENTAUR DEB, 44981 is space debris in HEO originally from a launch on Wed, 17 Oct 2018 UTC launched from the Air Force Eastern Test Range (AFETR). Debris objects in space refer to the collection of defunct objects orbiting the Earth. Examples of debris include non-operational satellites, rocket bodies, and fragments generated from explosions, collisions, or faulty payload assembly.

Loading next visibility...
ATLAS 5 CENTAUR DEB details
Identifier
44981, 2018-079BQ
Orbit
HEO
Last TLE update2 months ago
Origin
Flag of USULA (US)
ManufacturerULA Decatur
MissionSpacecraft
Bus & MotorUnknown
MassUnknown
Launch date (UTC)
2018-10-17 (6 years ago)
Launch vehicleUnknown
Launch site
Air Force Eastern Test Range (AFETR)
Object type
Payload
Rocket body
Debris
Shape & HBRUnknown
Radar Cross SectionRCS unknown

Expand to show TLE details & history

TLE from 2 months ago
0 ATLAS 5 CENTAUR DEB
1 44981U 18079BQ  24286.15522666 -.00000026  00000-0  00000-0 0  9995
2 44981  11.8149 283.5976 5198998 207.2770 111.5244  2.34190156  2265
Epoch: 2024-10-12T03:43Z
Definitive object data (Epoch: 2024-10-12T03:43:31.583Z)
Latitude-0.00004°
Longitude-153.55464°
Altitude26,078.596 km
Speed2.815 km/s
True Right ascension18h 54m 10s
True Declination0° 00' 00"
Sunlit
Object was in daylight at TLE epoch
Visualization TLE readout
Latitude11.58845°
Longitude-84.02348°
Altitude25,465.341 km
Speed2.897 km/s
Apparent Right ascension23h 26m 15s
Apparent Declination3° 40' 55"
Sunlit
Object is in daylight
Visualization observer readout
Local Sidereal Time10:47:35
Azimuth346.169° N
Elevation-45.507°
Doppler factor1
Orbital elements
Apogee altitude30,031.926 km
Perigee altitude5,122.936 km
Semi-major axis23,955.568 km
Eccentricity0.5198998
Inclination11.8149°
RAAN283.5976°
Arg. of periapsis207.277°
True anomaly152.67892°
Mean anomaly111.5244°
Eccentric anomaly133.22873°
Mean motion0.58537 °/min
BSTARUnknown
Orbital period614.99 mins
Loading maneuver chart data...

ATLAS 5 CENTAUR DEB Visibility forecast

Observer location: undefined°, undefined

Span
Click to sort rows by Start time (UTC) header in descending order
Start Az.
Max El. time (UTC)
Max El. Az.
Max El.
End time (UTC)
End Az.
514 mins2024-12-26 14:58:14.483Z196.366° SSW2024-12-26 21:03:14.483Z121.504° SE31.875°2024-12-26 23:32:14.483Z104.256° ESE
|